K8JWL-13 Weather Reports


Display with metric or nautical units.
time (UTC)temp
F
wind
direction
speed
MPH
gust
MPH
rain 1hr
in
rain 24hr
in
rain mn
in
humidity
%
barometer
mb
20260502170236 48 288 4.0 0.0 157.50 0.00 0.00 53 1018.3
20260502163737 47 297 3.0 0.0 157.50 0.00 0.00 54 1018.3
20260502163236 47 305 6.0 0.0 157.50 0.00 0.00 56 1018.4
20260502162736 47 359 11.0 0.0 157.50 0.00 0.00 57 1018.4
20260502162238 47 145 2.0 0.0 157.50 0.00 0.00 54 1018.4
20260502161739 47 15 4.0 0.0 157.50 0.00 0.00 59 1018.5
20260502161236 47 8 6.0 0.0 157.50 0.00 0.00 59 1018.5
20260502160736 47 6 2.0 0.0 157.50 0.00 0.00 57 1018.4
20260502160236 47 329 7.0 0.0 157.50 0.00 0.00 58 1018.4
20260502152236 45 11 8.0 0.0 157.50 0.00 0.00 60 1018.4
20260502151736 45 13 9.0 0.0 157.50 0.00 0.00 60 1018.3
20260502151236 46 336 9.0 0.0 157.50 0.00 0.00 65 1018.2
20260502150736 45 60 8.0 0.0 157.50 0.00 0.00 64 1018.3
20260502150236 45 75 5.0 0.0 157.50 0.00 0.00 62 1018.3
20260502130736 40 37 5.0 0.0 157.50 0.00 0.00 78 1018.1
20260502130235 40 359 4.0 0.0 157.50 0.00 0.00 79 1018.0
20260502123737 39 308 3.0 0.0 157.50 0.00 0.00 79 1018.0
20260502123235 39 304 5.0 0.0 157.50 0.00 0.00 79 1018.0
20260502122736 38 321 6.0 0.0 157.50 0.00 0.00 80 1017.9
20260502122235 38 293 5.0 0.0 157.50 0.00 0.00 80 1017.8
20260502121736 38 295 1.0 0.0 157.50 0.00 0.00 80 1017.7
20260502121238 38 338 1.0 0.0 157.50 0.00 0.00 81 1017.7
20260502120735 37 11 3.0 0.0 157.50 0.00 0.00 81 1017.7
20260502120237 37 31 2.0 0.0 157.50 0.00 0.00 82 1017.6
20260502115736 37 343 1.0 0.0 157.50 0.00 0.00 82 1017.5
20260502115235 37 326 4.0 0.0 157.50 0.00 0.00 83 1017.5
20260502114735 36 359 1.0 0.0 157.50 0.00 0.00 84 1017.5
20260502114237 36 271 0.0 0.0 157.50 0.00 0.00 84 1017.5
20260502113236 36 307 1.0 0.0 157.50 0.00 0.00 85 1017.4
20260502112737 36 343 0.0 0.0 157.50 0.00 0.00 85 1017.4
20260502112235 35 326 1.0 0.0 157.50 0.00 0.00 86 1017.4
20260502111737 35 301 2.0 0.0 157.50 0.00 0.00 86 1017.4
20260502110735 35 281 2.0 0.0 157.50 0.00 0.00 86 1017.4
20260502110235 35 264 0.0 0.0 157.50 0.00 0.00 86 1017.4
20260502105736 35 264 0.0 0.0 157.50 0.00 0.00 86 1017.3
20260502105235 35 264 0.0 0.0 157.50 0.00 0.00 86 1017.4
20260502104735 35 264 0.0 0.0 157.50 0.00 0.00 86 1017.4
20260502104237 35 264 0.0 0.0 157.50 0.00 0.00 86 1017.3
20260502102738 36 264 0.0 0.0 157.50 0.00 0.00 85 1017.2
20260502102235 36 264 0.0 0.0 157.50 0.00 0.00 85 1017.2
20260502101238 36 240 0.0 0.0 157.50 0.00 0.00 86 1017.2
20260502100238 36 280 0.0 0.0 157.50 0.00 0.00 86 1017.3
20260502091235 36 285 0.0 0.0 157.50 0.00 0.00 87 1017.2
20260502090735 36 263 0.0 0.0 157.50 0.00 0.00 86 1017.1
20260502090235 36 263 0.0 0.0 157.50 0.00 0.00 86 1017.2
20260502071235 38 250 0.0 0.0 157.50 0.00 0.00 86 1017.0
20260502070735 38 248 0.0 0.0 157.50 0.00 0.00 86 1017.0
20260502070235 38 266 1.0 0.0 157.50 0.00 0.00 86 1017.0
20260502065235 38 183 0.0 0.0 157.50 0.00 0.00 86 1017.2
20260502064735 38 333 1.0 0.0 157.50 0.00 0.00 86 1017.2
20260502064235 38 207 0.0 0.0 157.50 0.00 0.00 87 1017.2
20260502063236 38 207 0.0 0.0 157.50 0.00 0.00 87 1017.2
20260502062735 39 207 0.0 0.0 157.50 0.00 0.00 87 1017.2
20260502061735 39 207 0.0 0.0 157.50 0.00 0.00 88 1017.2
20260502061236 39 207 0.0 0.0 157.50 0.00 0.00 88 1017.1
20260502060735 39 207 0.0 0.0 157.50 0.00 0.00 88 1017.2
20260502060235 39 207 0.0 0.0 157.50 0.00 0.00 88 1017.1
20260502055737 39 207 0.0 0.0 157.50 0.00 0.00 88 1017.2
20260502055235 39 207 0.0 0.0 157.50 0.00 0.00 88 1017.3
20260502054735 39 207 0.0 0.0 157.50 0.00 0.00 88 1017.4
20260502054235 39 207 0.0 0.0 157.50 0.00 0.00 88 1017.4
20260502053735 39 207 0.0 0.0 157.50 0.00 0.00 87 1017.5
20260502053235 39 207 0.0 0.0 157.50 0.00 0.00 87 1017.5
20260502052735 39 207 0.0 0.0 157.50 0.00 0.00 87 1017.5
20260502052235 39 207 0.0 0.0 157.50 0.00 0.00 87 1017.4
20260502051735 39 207 0.0 0.0 157.50 0.00 0.00 87 1017.4
20260502051235 39 207 0.0 0.0 157.50 0.00 0.00 87 1017.4
20260502050735 40 207 0.0 0.0 157.50 0.00 0.00 87 1017.4
20260502050235 40 207 0.0 0.0 157.50 0.00 0.00 87 1017.5
20260502045736 40 207 0.0 0.0 157.50 0.00 0.00 87 1017.6
20260502045235 40 207 0.0 0.0 157.50 0.00 0.00 87 1017.6
20260502044735 40 207 0.0 0.0 157.50 0.00 0.00 86 1017.5
20260502043735 40 207 0.0 0.0 157.50 0.00 0.00 86 1017.5
20260502042735 41 207 0.0 0.0 157.50 0.00 0.03 86 1017.5
20260502042235 41 207 0.0 0.0 157.50 0.00 0.03 86 1017.4
20260502041735 41 207 0.0 0.0 157.50 0.00 0.03 86 1017.5
20260502041235 41 207 0.0 0.0 157.50 0.00 0.03 86 1017.5
20260502040735 41 207 0.0 0.0 157.50 0.00 0.03 86 1017.5
20260502040235 41 207 0.0 0.0 157.50 0.00 0.03 86 1017.5
20260502035736 41 207 0.0 0.0 157.50 0.00 0.03 85 1017.5
20260502035235 41 207 0.0 0.0 157.50 0.00 0.03 85 1017.4
20260502034735 41 207 0.0 0.0 157.50 0.00 0.03 85 1017.4
20260502034235 42 207 0.0 0.0 157.50 0.00 0.03 85 1017.4
20260502033735 42 207 0.0 0.0 157.50 0.00 0.03 85 1017.4
20260502033235 42 207 0.0 0.0 157.50 0.00 0.03 85 1017.5
20260502032735 42 207 0.0 0.0 157.50 0.00 0.03 85 1017.6
20260502032235 42 207 0.0 0.0 157.50 0.00 0.03 85 1017.6
20260502031735 42 207 0.0 0.0 157.50 0.00 0.03 85 1017.6
20260502031235 42 207 0.0 0.0 157.50 0.00 0.03 84 1017.6
20260502030737 42 207 0.0 0.0 157.50 0.00 0.03 84 1017.6
20260502030235 42 207 0.0 0.0 157.50 0.00 0.03 84 1017.5
20260502025735 42 207 0.0 0.0 157.50 0.00 0.03 84 1017.5
20260502024735 43 207 0.0 0.0 157.50 0.00 0.03 83 1017.5
20260502024235 43 207 0.0 0.0 157.50 0.00 0.03 83 1017.5
20260502023735 43 207 0.0 0.0 157.50 0.00 0.03 83 1017.4
20260502023235 43 207 0.0 0.0 157.50 0.00 0.03 83 1017.4
20260502022735 44 207 0.0 0.0 157.50 0.00 0.03 82 1017.3
20260502022235 44 207 0.0 0.0 157.50 0.00 0.03 82 1017.3
20260502020735 45 72 0.0 0.0 157.50 0.00 0.03 81 1017.1
20260502020235 45 72 0.0 0.0 157.50 0.00 0.03 81 1017.1
20260502015234 45 72 0.0 0.0 157.50 0.00 0.03 80 1017.1
20260502014735 45 72 0.0 0.0 157.50 0.00 0.03 80 1017.0
20260502014237 46 52 1.0 0.0 157.50 0.00 0.03 80 1017.1
20260502013734 46 113 0.0 0.0 157.50 0.00 0.03 79 1017.0
20260502013234 46 113 0.0 0.0 157.50 0.00 0.03 79 1016.9
20260502012735 46 113 0.0 0.0 157.50 0.00 0.03 79 1016.9
20260502012234 46 113 0.0 0.0 157.50 0.00 0.03 78 1016.8
20260502011235 47 132 1.0 0.0 157.50 0.00 0.03 78 1016.6
20260502010735 47 96 0.0 0.0 157.50 0.00 0.03 77 1016.5
20260502010234 47 122 1.0 0.0 157.50 0.00 0.03 77 1016.4
20260502005234 47 115 1.0 0.0 157.50 0.00 0.03 75 1016.4
20260502004735 48 32 2.0 0.0 157.50 0.00 0.03 75 1016.4
20260502004235 48 82 4.0 0.0 157.50 0.00 0.03 75 1016.3
20260502003734 48 80 3.0 0.0 157.50 0.00 0.03 73 1016.3
20260502003236 49 55 1.0 0.0 157.50 0.00 0.03 72 1016.4
20260502002736 49 11 4.0 0.0 157.50 0.00 0.03 71 1016.4
20260502002234 50 63 2.0 0.0 157.50 0.00 0.03 69 1016.5
20260502001737 50 314 2.0 0.0 157.50 0.00 0.03 66 1016.4
20260502000734 50 66 1.0 0.0 157.50 0.00 0.03 64 1016.2
20260502000234 50 330 0.0 0.0 157.50 0.00 0.03 63 1016.1
20260501235736 50 343 0.0 0.0 157.50 0.00 0.03 62 1016.0
20260501234734 50 343 2.0 0.0 157.50 0.00 0.03 61 1015.7
20260501234235 51 338 1.0 0.0 157.50 0.00 0.03 60 1015.5
20260501233734 51 41 2.0 0.0 157.50 0.00 0.03 60 1015.4
20260501233234 51 4 3.0 0.0 157.50 0.00 0.03 61 1015.5
20260501232735 51 343 2.0 0.0 157.50 0.00 0.03 65 1015.3
20260501232234 51 245 1.0 0.0 157.50 0.00 0.03 64 1015.3
20260501231735 52 359 9.0 0.0 157.50 0.00 0.03 65 1015.3
20260501231235 52 338 4.0 0.0 157.50 0.00 0.03 66 1015.3
20260501230734 52 294 2.0 0.0 157.50 0.00 0.03 65 1015.3
20260501230234 52 65 1.0 0.0 157.50 0.00 0.03 65 1015.3
20260501225735 52 10 6.0 0.0 157.50 0.00 0.03 64 1015.3
20260501225234 53 357 4.0 0.0 157.50 0.00 0.03 63 1015.3
20260501224734 52 58 1.0 0.0 157.50 0.00 0.03 64 1015.3
20260501224235 52 339 4.0 0.0 157.50 0.00 0.03 66 1015.2
20260501223735 51 346 5.0 0.0 157.50 0.00 0.03 66 1015.2
20260501223234 51 51 2.0 0.0 157.50 0.00 0.03 66 1015.3
20260501222735 51 352 2.0 0.0 157.50 0.00 0.03 67 1015.3
20260501222235 51 342 0.0 0.0 157.50 0.00 0.03 66 1015.5
20260501221734 51 359 3.0 0.0 157.50 0.00 0.03 66 1015.5
20260501221235 51 20 2.0 0.0 157.50 0.00 0.03 65 1015.5
20260501220735 51 336 8.0 0.0 157.50 0.00 0.03 66 1015.7
20260501220234 52 15 6.0 0.0 157.50 0.00 0.03 64 1015.5
20260501215234 52 326 6.0 0.0 157.50 0.00 0.03 65 1015.7
20260501214735 53 13 5.0 0.0 157.50 0.00 0.03 65 1015.5
20260501214234 53 330 1.0 0.0 157.50 0.00 0.03 66 1015.5
20260501213735 53 301 2.0 0.0 157.50 0.00 0.03 66 1015.3
20260501213234 53 105 0.0 0.0 157.50 0.00 0.03 64 1015.3
20260501212737 53 37 6.0 0.0 157.50 0.00 0.03 63 1015.2
20260501211235 52 283 3.0 0.0 157.50 0.00 0.03 66 1015.1
20260501210736 51 30 7.0 0.0 157.50 0.00 0.03 67 1015.1
20260501210234 51 18 5.0 0.0 157.50 0.00 0.03 68 1015.1
20260501205735 49 53 7.0 0.0 157.50 0.00 0.03 74 1015.1
20260501205234 49 359 4.0 0.0 157.50 0.00 0.03 75 1015.2
20260501204734 49 343 5.0 0.0 157.50 0.00 0.03 76 1015.1
20260501204234 49 333 1.0 0.0 157.50 0.00 0.03 76 1015.2
20260501203735 49 311 3.0 0.0 157.50 0.00 0.03 75 1015.3
20260501203234 49 288 3.0 0.0 157.50 0.00 0.03 78 1015.2
20260501202735 48 24 7.0 0.0 157.50 0.00 0.03 79 1015.3
20260501202234 47 13 4.0 0.0 157.50 0.00 0.03 78 1015.2
20260501201735 47 354 5.0 0.0 157.50 0.00 0.03 78 1015.1
20260501201234 47 308 7.0 0.0 157.50 0.00 0.03 78 1015.1
20260501200734 47 53 8.0 0.0 157.50 0.00 0.03 78 1015.1
20260501200234 47 307 3.0 0.0 157.50 0.00 0.03 77 1015.1
20260501195735 48 149 4.0 0.0 157.50 0.00 0.03 76 1015.0
20260501195234 48 242 3.0 0.0 157.50 0.00 0.03 77 1014.9
20260501194734 48 325 7.0 0.0 157.50 0.00 0.03 77 1014.9
20260501194235 48 354 6.0 0.0 157.50 0.00 0.03 78 1014.8
20260501193735 48 53 3.0 0.0 157.50 0.00 0.03 76 1014.8
20260501193234 48 18 0.0 0.0 157.50 0.00 0.03 79 1014.8
20260501192735 48 269 4.0 0.0 157.50 0.00 0.03 78 1014.9
20260501192234 48 309 5.0 0.0 157.50 0.00 0.03 78 1014.8
20260501191234 48 345 8.0 0.0 157.50 0.00 0.03 78 1014.6
20260501190736 48 336 5.0 0.0 157.50 0.00 0.03 78 1014.6
20260501190234 48 359 3.0 0.0 157.50 0.00 0.03 77 1014.7
20260501185234 48 259 3.0 0.0 157.50 0.00 0.03 76 1014.5
20260501184736 48 172 5.0 0.0 157.50 0.00 0.03 80 1014.5
20260501184234 48 287 8.0 0.0 157.50 0.00 0.03 79 1014.5
20260501183735 47 293 7.0 0.0 157.50 0.00 0.03 80 1014.4
20260501183234 48 17 6.0 0.0 157.50 0.00 0.03 79 1014.4
20260501182734 48 359 5.0 0.0 157.50 0.00 0.03 79 1014.1
20260501182234 48 288 3.0 0.0 157.50 0.00 0.03 79 1014.0
20260501181734 48 338 6.0 0.0 157.50 0.00 0.03 78 1014.0
20260501181235 48 267 6.0 0.0 157.50 0.00 0.03 78 1013.9
20260501180735 49 335 4.0 0.0 157.50 0.00 0.03 78 1013.7
20260501180234 49 8 3.0 0.0 157.50 0.00 0.03 78 1013.7
20260501175234 49 3 7.0 0.0 157.50 0.00 0.03 78 1013.4
20260501174736 50 18 9.0 0.0 157.50 0.00 0.03 78 1013.3
20260501174234 51 11 12.0 0.0 157.50 0.00 0.03 79 1013.2
20260501173735 51 319 16.0 0.0 157.50 0.00 0.03 78 1013.1
20260501173234 52 354 11.0 0.0 157.50 0.00 0.03 78 1012.9
20260501172735 52 321 5.0 0.0 157.50 0.00 0.03 78 1012.7
20260501172234 52 343 4.0 0.0 157.50 0.00 0.03 78 1012.4
20260501171234 52 333 5.0 0.0 157.50 0.00 0.03 75 1012.2